Location: Munkebjergskolens Observatorium
(55.3864°N, 10.3987°E)
Time: 05:02:47
(UTC+02:00)

KKS-1 - Pass Details

Date: 08 April 2023
Orbit: 633 x 644 km, 98.2° (Epoch: 31 May)

Event Time Altitude Azimuth Distance (km) Brightness Sun altitude
Rises 23:46:07 0° 18° (NNE) 2,946 ? -24.3°
Reaches altitude 10° 23:48:22 10° 23° (NNE) 2,033 ? -24.4°
Enters shadow 23:51:56 47° 63° (ENE) 853 ? -24.6°
